Flag for Canada Weather past 2 weeks in Colchester County, Nova Scotia, Canada

Now
14 °F

Light snow. Ice fog.


Feels Like: -4 °F
Forecast: 7 / 30 °F
Wind: 20 mph from Northeast

Location: Halifax International Airport

Current Time: Jan 27, 2015 at 8:26:22 AM

Latest Report: Jan 27, 2015 at 7:00 AM


Visibility: 1 mi

Pressure: 29.90 "Hg

Humidity: 85%

Dew point: 10 °F

Location of Colchester CountyLocation

Historic Weather in Colchester County — Graph

°F

Colchester County temperature yesterday

Maximum temperature yesterday: 19 °F (at 3:00 PM)
Minimum temperature yesterday: 10 °F (at 8:00 AM)
Average temperature yesterday: 14 °F

Past Weeks' High & Low Weather Summary

 TemperatureHumidityPressure
High50 °F (Jan 24, 11:00 PM)100% (Jan 12, 5:00 PM)30.58 "Hg (Jan 12, 5:00 PM)
Low1 °F (Jan 13, 10:00 PM)41% (Jan 26, 4:00 PM)28.55 "Hg (Jan 25, 3:00 AM)
Average23 °F81%29.92 "Hg
* Reported Jan 12 7:00 AM — Jan 27 7:00 AM, Colchester County, Weather by CustomWeather, © 2014

Note: Actual official high and low records may vary slightly from our data, if they occured in-between our weather recording intervals... More about our weather records

Advertising

Colchester County weather history for previous 24 hours

 ConditionsComfort  
Time TempWeatherWind HumidityBarometerVisibility
7:00 AM
Jan 27
14 °FLight snow. Ice fog.20 mph85%29.90 "Hg1 mi
6:00 AM16 °FSnow flurries. Overcast.28 mph57%29.96 "Hg15 mi
5:50 AM14 °FSnow flurries. Overcast.26 mph62%29.97 "Hg15 mi
5:00 AM14 °FOvercast.23 mph67%30.05 "Hg15 mi
4:00 AM14 °FOvercast.22 mph67%30.10 "Hg15 mi
3:00 AM14 °FOvercast.16 mph73%30.19 "Hg15 mi
2:00 AM14 °FOvercast.17 mph73%30.21 "Hg15 mi
1:00 AM12 °FOvercast.18 mph57%30.23 "Hg15 mi
12:00 AM12 °FOvercast.14 mph62%30.26 "Hg15 mi
11:00 PM
Jan 26
12 °FOvercast.10 mph67%30.29 "Hg15 mi
10:00 PM12 °FOvercast.9 mph67%30.31 "Hg15 mi
9:00 PM12 °FPassing clouds.10 mph62%30.29 "Hg15 mi
8:00 PM12 °FPassing clouds.7 mph62%30.29 "Hg15 mi
7:00 PM12 °FClear.6 mph52%30.26 "Hg15 mi
6:00 PM14 °FPassing clouds.3 mph48%30.24 "Hg15 mi
5:00 PM16 °FScattered clouds.6 mph41%30.21 "Hg15 mi
4:00 PM18 °FScattered clouds.10 mph41%30.18 "Hg15 mi
3:00 PM19 °FPartly sunny.10 mph42%30.16 "Hg15 mi
2:00 PM18 °FPartly sunny.9 mph45%30.17 "Hg15 mi
1:00 PM18 °FPartly sunny.7 mph45%30.16 "Hg15 mi
12:00 PM14 °FScattered clouds.7 mph52%30.16 "Hg15 mi
11:00 AM14 °FPassing clouds.8 mph52%30.15 "Hg15 mi
10:00 AM12 °FPassing clouds.13 mph57%30.11 "Hg15 mi
9:00 AM10 °FScattered clouds.16 mph67%30.08 "Hg15 mi
8:00 AM10 °FScattered clouds.14 mph72%30.04 "Hg15 mi
Weather by CustomWeather, © 2014

See weather overviewHow to use our weather pages